Boston, MA

12:51 PM EDT on April 25, 2018 (GMT -0400)
Logan International

Weather History for KBOS - October, 2013

Change the Weather History Date:

Thursday, October 3, 2013

  Actual Average Record
Temperature  
Mean Temperature 70 °F 58 °F  
Max Temperature 79 °F 66 °F 85 °F (1922)
Min Temperature 61 °F 51 °F 35 °F (1899)
Degree Days  
Heating Degree Days 0 7  
Month to date heating degree days 1 21  
Since 1 July heating degree days 86 118  
Cooling Degree Days 5 1  
Month to date cooling degree days 12 3  
Year to date cooling degree days 915 743  
Growing Degree Days 20 (Base 50)    
Moisture  
Dew Point 49 °F    
Average Humidity 50    
Maximum Humidity 72    
Minimum Humidity 28    
Precipitation  
Precipitation 0.00 in 0.12 in 1.48 in (1961)
Month to date precipitation 0.00 0.38  
Year to date precipitation 32.41 32.44  
Sea Level Pressure  
Sea Level Pressure 30.03 in    
Wind  
Wind Speed 7 mph (West)    
Max Wind Speed 14 mph    
Max Gust Speed 17 mph    
Visibility 10 miles    
Events      
T = Trace of Precipitation, MM = Missing Value Source: NWS Daily Summary

Daily Weather History Graph

Daily Weather History Graph

Search for Another Location

Airport or City:

Astronomy

Oct. 03, 2013 Rise Set
Actual Time 6:43 AM EDT 6:21 PM EDT
Civil Twilight 6:15 AM EDT 6:49 PM EDT
Nautical Twilight 5:42 AM EDT 7:22 PM EDT
Astronomical Twilight 5:10 AM EDT 7:54 PM EDT
Moon 5:12 AM EDT (10/3) 5:28 PM EDT (10/3)
Length of Visible Light 12h 34m
Length of Day
11h 38m
Waning Crescent, 2% of the Moon is Illuminated
Oct 3
Waning Crescent
Oct 4
New
Oct 11
First Quarter
Oct 18
Full
Oct 26
Last Quarter

Hourly Weather History & Observations

Time (EDT) Temp. Dew Point Humidity Pressure Visibility Wind Dir Wind Speed Gust Speed Precip Events Conditions
12:54 AM 66.9 °F 55.0 °F 66% 29.96 in 10.0 mi WNW 10.4 mph - N/A   Clear
1:54 AM 66.0 °F 54.0 °F 65% 29.98 in 10.0 mi WNW 9.2 mph - N/A   Clear
2:54 AM 64.0 °F 54.0 °F 70% 29.98 in 10.0 mi WNW 9.2 mph - N/A   Clear
3:54 AM 64.0 °F 53.1 °F 67% 30.00 in 10.0 mi West 9.2 mph - N/A   Clear
4:54 AM 63.0 °F 53.1 °F 70% 30.01 in 10.0 mi WNW 9.2 mph - N/A   Clear
5:54 AM 62.1 °F 52.0 °F 70% 30.03 in 10.0 mi WNW 10.4 mph - N/A   Clear
6:54 AM 62.1 °F 51.1 °F 67% 30.04 in 10.0 mi WNW 10.4 mph - N/A   Partly Cloudy
7:54 AM 64.0 °F 48.9 °F 58% 30.06 in 10.0 mi WNW 10.4 mph - N/A   Partly Cloudy
8:54 AM 68.0 °F 48.0 °F 49% 30.07 in 10.0 mi WNW 10.4 mph - N/A   Scattered Clouds
9:54 AM 72.0 °F 46.0 °F 40% 30.08 in 10.0 mi NW 10.4 mph - N/A   Mostly Cloudy
10:54 AM 75.0 °F 46.0 °F 36% 30.08 in 10.0 mi WNW 9.2 mph - N/A   Mostly Cloudy
11:54 AM 72.0 °F 51.1 °F 48% 30.07 in 10.0 mi SE 8.1 mph - N/A   Mostly Cloudy
12:54 PM 73.9 °F 48.9 °F 41% 30.05 in 10.0 mi SE 4.6 mph - N/A   Mostly Cloudy
1:54 PM 75.0 °F 48.0 °F 38% 30.02 in 9.0 mi SE 4.6 mph - N/A   Mostly Cloudy
2:54 PM 78.1 °F 42.1 °F 28% 30.01 in 10.0 mi WSW 6.9 mph - N/A   Mostly Cloudy
3:54 PM 78.1 °F 43.0 °F 29% 30.01 in 10.0 mi WSW 9.2 mph - N/A   Mostly Cloudy
4:54 PM 77.0 °F 45.0 °F 32% 30.00 in 10.0 mi SW 6.9 mph - N/A   Mostly Cloudy
5:54 PM 75.0 °F 42.1 °F 31% 30.01 in 10.0 mi West 8.1 mph - N/A   Mostly Cloudy
6:54 PM 66.0 °F 52.0 °F 60% 30.03 in 10.0 mi Calm Calm - N/A   Mostly Cloudy
7:54 PM 71.1 °F 44.1 °F 38% 30.03 in 10.0 mi West 4.6 mph - N/A   Mostly Cloudy
8:54 PM 69.1 °F 45.0 °F 42% 30.04 in 10.0 mi West 6.9 mph - N/A   Scattered Clouds
9:54 PM 63.0 °F 50.0 °F 63% 30.06 in 10.0 mi Calm Calm - N/A   Scattered Clouds
10:54 PM 66.9 °F 46.0 °F 47% 30.06 in 10.0 mi WNW 5.8 mph - N/A   Scattered Clouds